Leonardtown, MD

5:04 PM EST on December 14, 2017 (GMT -0500)
Leonardtown

Weather History for K2W6 - February, 2014

Change the Weather History Date:

Tuesday, February 18, 2014

  Actual Average (KNHK) Record (KNHK)
Temperature  
Mean Temperature 42 °F -  
Max Temperature 55 °F 44 °F 66 °F (2017)
Min Temperature 30 °F 26 °F 10 °F (2015)
Degree Days  
Heating Degree Days 22    
Moisture  
Dew Point 27 °F    
Average Humidity 61    
Maximum Humidity 100    
Minimum Humidity 29    
Precipitation  
Precipitation 0.00 in - - ()
Sea Level Pressure  
Sea Level Pressure 30.11 in    
Wind  
Wind Speed 6 mph (SW)    
Max Wind Speed 17 mph    
Max Gust Speed 23 mph    
Visibility 9 miles    
Events      
Averages and records for this station are not official NWS values.
T = Trace of Precipitation, MM = Missing Value Source: NWS Daily Summary

Daily Weather History Graph

Daily Weather History Graph

Search for Another Location

Airport or City:

Trip Planner

Search our weather history database for the weather conditions in past years. The results will help you decide how hot, cold, wet, or windy it might be!

Date:

Astronomy

Feb. 18, 2014 Rise Set
Actual Time 6:52 AM EST 5:47 PM EST
Civil Twilight 6:26 AM EST 6:14 PM EST
Nautical Twilight 5:55 AM EST 6:45 PM EST
Astronomical Twilight 5:24 AM EST 7:16 PM EST
Moon 9:35 PM EST (2/18) 8:27 AM EST (2/18)
Length of Visible Light 11h 48m
Length of Day
10h 54m
Waning Gibbous, 87% of the Moon is Illuminated
Feb 18
Waning Gibbous
Feb 22
Last Quarter
Mar 1
New
Mar 8
First Quarter
Mar 16
Full

Hourly Weather History & Observations

Time (EST) Temp. Windchill Dew Point Humidity Pressure Visibility Wind Dir Wind Speed Gust Speed Precip Events Conditions
1:13 AM 32.0 °F - 21.2 °F 64% 30.25 in 10.0 mi North - - N/A   Overcast
1:33 AM 32.0 °F 28.7 °F 21.2 °F 64% 30.25 in 10.0 mi SSE 3.5 mph - N/A   Overcast
1:53 AM 32.0 °F 27.5 °F 23.0 °F 69% 30.24 in 5.0 mi SSE 4.6 mph - N/A   Overcast
2:13 AM 30.2 °F 26.7 °F 26.6 °F 86% 30.21 in 2.5 mi ESE 3.5 mph - N/A   Overcast
2:33 AM 30.2 °F 26.7 °F 26.6 °F 86% 30.20 in 10.0 mi ESE 3.5 mph - N/A   Overcast
2:53 AM 30.2 °F 26.7 °F 26.6 °F 86% 30.20 in 10.0 mi East 3.5 mph - N/A   Overcast
3:14 AM 30.2 °F - 26.6 °F 86% 30.19 in 10.0 mi Calm Calm - N/A   Overcast
3:34 AM 30.2 °F - 26.6 °F 86% 30.18 in 10.0 mi Calm Calm - N/A   Overcast
3:54 AM 30.2 °F 25.4 °F 28.4 °F 93% 30.16 in 7.0 mi ESE 4.6 mph - N/A   Overcast
4:14 AM 30.2 °F 25.4 °F 28.4 °F 93% 30.15 in 5.0 mi SE 4.6 mph - N/A   Overcast
4:34 AM 32.0 °F - 30.2 °F 93% 30.16 in 4.0 mi Calm Calm - N/A   Overcast
4:54 AM 32.0 °F 26.4 °F 30.2 °F 93% 30.18 in 7.0 mi WNW 5.8 mph - N/A   Overcast
5:14 AM 32.0 °F 28.7 °F 30.2 °F 93% 30.17 in 2.5 mi WNW 3.5 mph - N/A   Overcast
5:34 AM 32.0 °F - 30.2 °F 93% 30.16 in 1.8 mi Calm Calm - N/A   Overcast
5:54 AM 32.0 °F - 30.2 °F 93% 30.14 in 5.0 mi Calm Calm - N/A   Overcast
6:14 AM 32.0 °F 28.7 °F 30.2 °F 93% 30.12 in 10.0 mi South 3.5 mph - N/A   Overcast
6:34 AM 32.0 °F 28.7 °F 30.2 °F 93% 30.13 in 10.0 mi WSW 3.5 mph - N/A   Overcast
6:54 AM 32.0 °F 27.5 °F 30.2 °F 93% 30.13 in 10.0 mi WSW 4.6 mph - N/A   Overcast
7:14 AM 32.0 °F 28.7 °F 30.2 °F 93% 30.12 in 10.0 mi SW 3.5 mph - N/A   Mostly Cloudy
7:34 AM 32.0 °F 26.4 °F 30.2 °F 93% 30.12 in 10.0 mi SSW 5.8 mph - N/A   Clear
7:54 AM 32.0 °F 27.5 °F 30.2 °F 93% 30.12 in 10.0 mi SW 4.6 mph - N/A   Clear
8:14 AM 32.0 °F 26.4 °F 32.0 °F 100% 30.12 in 10.0 mi SW 5.8 mph - N/A   Clear
8:34 AM 33.8 °F 27.0 °F 32.0 °F 93% 30.11 in 10.0 mi SW 8.1 mph - N/A   Clear
8:54 AM 33.8 °F 24.3 °F 32.0 °F 93% 30.10 in 10.0 mi SW 13.8 mph 17.3 mph N/A   Clear
9:14 AM 35.6 °F 28.0 °F 32.0 °F 87% 30.09 in 10.0 mi SW 10.4 mph 17.3 mph N/A   Clear
9:34 AM 37.4 °F 30.3 °F 32.0 °F 81% 30.09 in 10.0 mi SW 10.4 mph 18.4 mph N/A   Clear
9:54 AM 37.4 °F 29.8 °F 32.0 °F 81% 30.08 in 10.0 mi SW 11.5 mph - N/A   Clear
10:14 AM 41.0 °F 34.7 °F 32.0 °F 70% 30.08 in 10.0 mi SW 10.4 mph - N/A   Clear
10:34 AM 41.0 °F 33.9 °F 32.0 °F 70% 30.08 in 10.0 mi SW 12.7 mph - N/A   Clear
10:54 AM 42.8 °F 36.6 °F 32.0 °F 66% 30.08 in 10.0 mi SW 11.5 mph 17.3 mph N/A   Clear
11:14 AM 44.6 °F 39.7 °F 32.0 °F 61% 30.08 in 10.0 mi SW 9.2 mph 18.4 mph N/A   Clear
11:35 AM 46.4 °F 40.7 °F 32.0 °F 57% 30.08 in 10.0 mi SW 12.7 mph 18.4 mph N/A   Clear
11:55 AM 48.2 °F - 32.0 °F 54% 30.07 in 10.0 mi SW 11.5 mph 18.4 mph N/A   Clear
12:15 PM 50.0 °F - 32.0 °F 50% 30.06 in 10.0 mi WSW 16.1 mph 21.9 mph N/A   Clear
12:35 PM 51.8 °F - 32.0 °F 47% 30.06 in 10.0 mi SW 12.7 mph 21.9 mph N/A   Clear
12:55 PM 51.8 °F - 28.4 °F 41% 30.05 in 10.0 mi SW 12.7 mph 21.9 mph N/A   Clear
1:15 PM 51.8 °F - 26.6 °F 38% 30.05 in 10.0 mi WSW 13.8 mph 23.0 mph N/A   Clear
1:35 PM 53.6 °F - 26.6 °F 35% 30.05 in 10.0 mi SW 12.7 mph 21.9 mph N/A   Clear
1:55 PM 53.6 °F - 26.6 °F 35% 30.04 in 10.0 mi WSW 17.3 mph 21.9 mph N/A   Clear
2:15 PM 53.6 °F - 24.8 °F 33% 30.04 in 10.0 mi WSW 12.7 mph 20.7 mph N/A   Clear
2:35 PM 55.4 °F - 24.8 °F 31% 30.04 in 10.0 mi SW 12.7 mph 23.0 mph N/A   Clear
2:55 PM 55.4 °F - 26.6 °F 33% 30.05 in 10.0 mi WSW 9.2 mph 17.3 mph N/A   Clear
3:15 PM 55.4 °F - 24.8 °F 31% 30.05 in 10.0 mi West 15.0 mph 23.0 mph N/A   Clear
3:35 PM 55.4 °F - 23.0 °F 29% 30.05 in 10.0 mi WSW 16.1 mph 21.9 mph N/A   Clear
3:55 PM 55.4 °F - 23.0 °F 29% 30.05 in 10.0 mi WSW 12.7 mph 18.4 mph N/A   Clear
4:15 PM 55.4 °F - 23.0 °F 29% 30.05 in 10.0 mi SW 12.7 mph 17.3 mph N/A   Clear
4:35 PM 55.4 °F - 23.0 °F 29% 30.06 in 10.0 mi WSW 11.5 mph 17.3 mph N/A   Clear
4:55 PM 55.4 °F - 23.0 °F 29% 30.06 in 10.0 mi WSW 9.2 mph - N/A   Clear
5:15 PM 53.6 °F - 23.0 °F 30% 30.06 in 10.0 mi SW 5.8 mph - N/A   Clear
5:35 PM 53.6 °F - 23.0 °F 30% 30.07 in 10.0 mi SW 4.6 mph - N/A   Clear
5:55 PM 51.8 °F - 23.0 °F 33% 30.08 in 10.0 mi WSW 5.8 mph - N/A   Clear
6:15 PM 50.0 °F - 23.0 °F 35% 30.08 in 10.0 mi SW 3.5 mph - N/A   Clear
6:35 PM 44.6 °F 43.1 °F 24.8 °F 46% 30.10 in 10.0 mi SE 3.5 mph - N/A   Clear
6:55 PM 46.4 °F 45.2 °F 23.0 °F 40% 30.10 in 10.0 mi SW 3.5 mph - N/A   Clear
7:15 PM 46.4 °F 44.3 °F 23.0 °F 40% 30.10 in 10.0 mi WSW 4.6 mph - N/A   Clear
7:35 PM 42.8 °F 41.1 °F 26.6 °F 53% 30.10 in 10.0 mi SSE 3.5 mph - N/A   Clear
7:55 PM 41.0 °F 39.0 °F 24.8 °F 53% 30.10 in 10.0 mi South 3.5 mph - N/A   Clear
8:15 PM 42.8 °F 41.1 °F 23.0 °F 46% 30.10 in 10.0 mi WSW 3.5 mph - N/A   Clear
8:36 PM 41.0 °F - 24.8 °F 53% 30.10 in 10.0 mi Calm Calm - N/A   Clear
8:56 PM 37.4 °F 34.9 °F 26.6 °F 65% 30.11 in 10.0 mi SW 3.5 mph - N/A   Clear
9:16 PM 39.2 °F - 26.6 °F 61% 30.11 in 10.0 mi Calm Calm - N/A   Clear
9:36 PM 39.2 °F - 24.8 °F 56% 30.10 in 10.0 mi Calm Calm - N/A   Clear
9:56 PM 41.0 °F - 23.0 °F 49% 30.10 in 10.0 mi Calm Calm - N/A   Clear
10:16 PM 39.2 °F 37.0 °F 24.8 °F 56% 30.11 in 10.0 mi South 3.5 mph - N/A   Clear
10:36 PM 42.8 °F 41.1 °F 23.0 °F 46% 30.10 in 10.0 mi South 3.5 mph - N/A   Clear
10:56 PM 44.6 °F - 23.0 °F 43% 30.10 in 10.0 mi Calm Calm - N/A   Clear
11:16 PM 42.8 °F - 23.0 °F 46% 30.10 in 10.0 mi Calm Calm - N/A   Clear
11:36 PM 42.8 °F 41.1 °F 23.0 °F 46% 30.09 in 10.0 mi SSW 3.5 mph - N/A   Clear
11:56 PM 42.8 °F 41.1 °F 23.0 °F 46% 30.09 in 10.0 mi South 3.5 mph - N/A   Clear